Location: Clanezzo
(45.7500°N, 9.6000°E)
Time: 23:57:34
(UTC+00:00)

USA 308 - Pass Details

Date: 04 October 2021
Orbit: 566 x 573 km, 54.0° (Epoch: 23 September)

Event Time Altitude Azimuth Distance (km) Brightness Sun altitude
Rises 17:53:21 0° 301° (WNW) 2,771 7.7 -10.8°
Reaches altitude 10° 17:55:39 10° 296° (WNW) 1,871 6.8 -11.2°
Maximum altitude 17:59:45 48° 222° (SW) 745 3.7 -12.0°
Drops below altitude 10° 18:03:50 10° 147° (SSE) 1,865 5.2 -12.7°
Enters shadow 18:04:17 - 146° (SE) 2,034 5.3 -12.7°
